Location: Aciu?a
(46.2833°N, 22.4500°E)
Time: 13:41:22
(UTC+00:00)

Cosmos 2278 Rocket - Pass Details

Date: 25 October 2021
Orbit: 841 x 845 km, 71.0° (Epoch: 06 December)

Event Time Altitude Azimuth Distance (km) Brightness Sun altitude
Rises 17:31:15 0° 339° (NNW) 3,416 5.7 -22.2°
Reaches altitude 10° 17:34:04 10° 351° (N) 2,476 4.8 -22.6°
Enters shadow 17:38:00 27° 33° (NNE) 1,576 3.3 -23.3°
